Вернуться в каталог

COSMOS 1083

АктивенВоенныеLEO
NORAD 11298·PAYLOAD·🇷🇺 Russia

Запущен Mar 15, 1979 с Plesetsk Cosmodrome

Loading…

Ближайшие Пролёты (ближайшие 24 часа)

TLE

СвежийSource: Space-Track

Эпоха: Sep 14, 2026, 13:22 UTC

1 11298U 79024C   26257.55695135 -.00000009  00000-0  43117-4 0  9994
2 11298  74.0310 106.9267 0014529 170.3097 218.1908 12.52617940172070

Отслеживайте COSMOS 1083 в реальном времени с AllMySat

Download on the App Store